Beatrice, NE

11:53 AM CDT on September 26, 2016 (GMT -0500)
Beatrice Municipal

Weather History for KBIE - January, 2005

Change the Weather History Date:

Sunday, January 9, 2005

  Actual Average Record
Temperature  
Mean Temperature 24 °F -  
Max Temperature 33 °F 28 °F 57 °F (1963)
Min Temperature 15 °F 9 °F -11 °F (1974)
Degree Days  
Heating Degree Days 41    
Moisture  
Dew Point 26 °F    
Average Humidity 93    
Maximum Humidity 100    
Minimum Humidity 74    
Precipitation  
Precipitation 0.03 in - - ()
Sea Level Pressure  
Sea Level Pressure 30.03 in    
Wind  
Wind Speed 8 mph (WNW)    
Max Wind Speed 23 mph    
Max Gust Speed 29 mph    
Visibility 5 miles    
Events Fog    
Averages and records for this station are not official NWS values.
T = Trace of Precipitation, MM = Missing Value Source: NWS Daily Summary

Daily Weather History Graph

Daily Weather History Graph

Search for Another Location

Airport or City:

Trip Planner

Search our weather history database for the weather conditions in past years. The results will help you decide how hot, cold, wet, or windy it might be!

Date:

Astronomy

Jan. 09, 2005 Rise Set
Actual Time 7:49 AM CST 5:19 PM CST
Civil Twilight 7:19 AM CST 5:49 PM CST
Nautical Twilight 6:45 AM CST 6:23 PM CST
Astronomical Twilight 6:12 AM CST 6:56 PM CST
Moon 7:25 AM CST (1/9) 4:14 PM CST (1/9)
Length of Visible Light 10h 30m
Length of Day
9h 29m
Waning Crescent, 1% of the Moon is Illuminated
Jan 9
Waning Crescent
Jan 10
New
Jan 17
First Quarter
Jan 25
Full
Feb 2
Last Quarter

Hourly Weather History & Observations

Time (CST) Temp. Windchill Dew Point Humidity Pressure Visibility Wind Dir Wind Speed Gust Speed Precip Events Conditions
12:10 AM 30.2 °F 21.3 °F 30.2 °F 100% 30.02 in 2.5 mi South 10.4 mph - N/A   Overcast
12:30 AM 30.2 °F 23.4 °F 30.2 °F 100% 30.01 in 2.5 mi South 6.9 mph - N/A   Overcast
1:15 AM 30.2 °F 21.9 °F 30.2 °F 100% 29.98 in 1.8 mi South 9.2 mph - N/A   Overcast
1:34 AM 30.2 °F 22.6 °F 30.2 °F 100% 29.98 in 1.8 mi SSE 8.1 mph - N/A   Overcast
2:55 AM 30.2 °F 23.4 °F 30.2 °F 100% 29.95 in 1.8 mi SSE 6.9 mph - N/A   Overcast
4:13 AM 30.2 °F 24.3 °F 28.4 °F 93% 29.93 in 2.5 mi SSE 5.8 mph - N/A   Overcast
4:33 AM 28.4 °F 19.7 °F 28.4 °F 100% 29.92 in 2.5 mi SSE 9.2 mph - N/A   Overcast
4:50 AM 28.4 °F 22.2 °F 28.4 °F 100% 29.91 in 2.5 mi SSE 5.8 mph - N/A   Overcast
5:10 AM 30.2 °F 22.6 °F 30.2 °F 100% 29.91 in 2.5 mi SSE 8.1 mph - N/A   Overcast
5:30 AM 30.2 °F 25.4 °F 30.2 °F 100% 29.91 in 2.5 mi SSE 4.6 mph - N/A   Overcast
5:50 AM 30.2 °F 22.6 °F 30.2 °F 100% 29.89 in 3.0 mi SSE 8.1 mph - N/A   Overcast
6:13 AM 30.2 °F 22.6 °F 30.2 °F 100% 29.87 in 3.0 mi SSE 8.1 mph - N/A   Overcast
6:30 AM 30.2 °F 26.7 °F 30.2 °F 100% 29.90 in 3.0 mi SSW 3.5 mph - N/A   Overcast
6:50 AM 30.2 °F 24.3 °F 30.2 °F 100% 29.91 in 4.0 mi South 5.8 mph - N/A   Overcast
7:10 AM 30.2 °F 26.7 °F 30.2 °F 100% 29.91 in 3.0 mi SSW 3.5 mph - N/A   Overcast
7:50 AM 30.2 °F 24.3 °F 30.2 °F 100% 29.89 in 2.5 mi South 5.8 mph - 0.01 in   Overcast
8:10 AM 30.2 °F 26.7 °F 30.2 °F 100% 29.90 in 1.8 mi South 3.5 mph - N/A   Overcast
8:30 AM 30.2 °F - 30.2 °F 100% 29.92 in 1.5 mi Calm Calm - N/A   Overcast
9:15 AM 30.2 °F 25.4 °F 30.2 °F 100% 29.91 in 0.2 mi South 4.6 mph - N/A Fog Light Freezing Fog
9:52 AM 30.2 °F 24.3 °F 30.2 °F 100% 29.94 in 0.2 mi SW 5.8 mph - N/A Fog Light Freezing Fog
10:15 AM 32.0 °F 26.4 °F 32.0 °F 100% 29.95 in 0.2 mi West 5.8 mph - N/A Fog Fog
10:52 AM 32.0 °F 23.6 °F 32.0 °F 100% 29.96 in 0.5 mi West 10.4 mph - 0.01 in Fog Fog
11:12 AM 32.0 °F 26.4 °F 32.0 °F 100% 29.93 in 1.0 mi West 5.8 mph - 0.01 in   Overcast
11:30 AM 32.0 °F 24.2 °F 32.0 °F 100% 29.95 in 1.5 mi West 9.2 mph - 0.01 in   Overcast
11:50 AM 32.0 °F 23.6 °F 32.0 °F 100% 29.96 in 1.2 mi West 10.4 mph - 0.01 in   Overcast
12:10 PM 32.0 °F 24.2 °F 32.0 °F 100% 29.96 in 1.5 mi West 9.2 mph - N/A   Overcast
12:30 PM 32.0 °F 22.5 °F 32.0 °F 100% 29.95 in 2.0 mi West 12.7 mph - N/A   Overcast
12:53 PM 33.8 °F 24.3 °F 32.0 °F 93% 29.96 in 2.5 mi NW 13.8 mph 18.4 mph N/A   Overcast
1:10 PM 33.8 °F 26.4 °F 32.0 °F 93% 29.96 in 4.0 mi WNW 9.2 mph - N/A   Overcast
1:30 PM 33.8 °F 25.8 °F 30.2 °F 87% 29.99 in 4.0 mi WNW 10.4 mph - N/A   Overcast
1:50 PM 33.8 °F 25.8 °F 30.2 °F 87% 30.00 in 4.0 mi WNW 10.4 mph - N/A   Overcast
2:13 PM 33.8 °F 24.8 °F 32.0 °F 93% 30.03 in 3.0 mi NW 12.7 mph - N/A   Overcast
2:33 PM 33.8 °F 21.9 °F 32.0 °F 93% 30.05 in 5.0 mi NW 21.9 mph - N/A   Overcast
2:50 PM 33.8 °F 21.9 °F 32.0 °F 93% 30.06 in 7.0 mi NNW 21.9 mph 28.8 mph N/A   Overcast
3:10 PM 33.8 °F 22.8 °F 30.2 °F 87% 30.07 in 7.0 mi NNW 18.4 mph 27.6 mph N/A   Overcast
3:30 PM 33.8 °F 24.3 °F 30.2 °F 87% 30.07 in 7.0 mi NNW 13.8 mph - N/A   Scattered Clouds
3:52 PM 33.8 °F 21.6 °F 26.6 °F 75% 30.09 in 10.0 mi NNW 23.0 mph 28.8 mph N/A   Clear
4:13 PM 32.0 °F 20.1 °F 26.6 °F 80% 30.09 in 10.0 mi NNW 19.6 mph - N/A   Clear
4:34 PM 30.2 °F 17.8 °F 24.8 °F 80% 30.11 in 10.0 mi North 19.6 mph - N/A   Clear
4:54 PM 28.4 °F 18.5 °F 23.0 °F 80% 30.12 in 10.0 mi North 11.5 mph - N/A   Clear
5:53 PM 26.6 °F 16.2 °F 19.4 °F 74% 30.14 in 10.0 mi North 11.5 mph - N/A   Clear
7:10 PM 23.0 °F 14.7 °F 17.6 °F 80% 30.18 in 10.0 mi North 6.9 mph - N/A   Clear
7:30 PM 23.0 °F 14.7 °F 17.6 °F 80% 30.18 in 10.0 mi North 6.9 mph - N/A   Clear
7:50 PM 21.2 °F 14.9 °F 17.6 °F 86% 30.19 in 10.0 mi North 4.6 mph - N/A   Clear
8:10 PM 19.4 °F 11.5 °F 15.8 °F 86% 30.19 in 10.0 mi North 5.8 mph - N/A   Clear
8:30 PM 19.4 °F 10.4 °F 15.8 °F 86% 30.19 in 10.0 mi North 6.9 mph - N/A   Clear
8:50 PM 19.4 °F 11.5 °F 15.8 °F 86% 30.19 in 10.0 mi North 5.8 mph - N/A   Clear
9:10 PM 17.6 °F 12.3 °F 15.8 °F 93% 30.19 in 10.0 mi North 3.5 mph - N/A   Clear
9:30 PM 17.6 °F - 14.0 °F 86% 30.22 in 10.0 mi Calm Calm - N/A   Clear
9:50 PM 17.6 °F 9.3 °F 14.0 °F 86% 30.22 in 10.0 mi NNW 5.8 mph - N/A   Clear
10:12 PM 15.8 °F 10.2 °F 12.2 °F 86% 30.23 in 10.0 mi NW 3.5 mph - N/A   Clear
10:30 PM 15.8 °F - 12.2 °F 86% 30.24 in 10.0 mi Calm Calm - N/A   Clear
10:50 PM 17.6 °F 12.3 °F 14.0 °F 86% 30.26 in 10.0 mi West 3.5 mph - N/A   Clear
11:10 PM 15.8 °F 7.2 °F 12.2 °F 86% 30.24 in 10.0 mi NNW 5.8 mph - N/A   Clear
11:30 PM 15.8 °F 7.2 °F 12.2 °F 86% 30.23 in 10.0 mi North 5.8 mph - N/A   Clear